TimeCET,TemperatureF,Dew PointF,Humidity,Sea Level PressureIn,VisibilityMPH,Wind Direction,Wind SpeedMPH,Gust SpeedMPH,PrecipitationIn,Events,Conditions,WindDirDegrees,DateUTC
12:15 AM,44.6,35.6,71,29.83,-9999.0,WSW,6.7,-,N/A,,Clear,250,2013-01-30 23:15:00
12:45 AM,44.6,35.6,71,29.83,6.2,WSW,6.7,-,N/A,Rain,Light Rain,250,2013-01-30 23:45:00
1:15 AM,44.6,35.6,71,29.83,-9999.0,WSW,6.7,-,N/A,,Clear,240,2013-01-31 00:15:00
1:45 AM,44.6,37.4,76,29.83,6.2,WSW,6.7,-,N/A,Rain,Light Rain,250,2013-01-31 00:45:00
2:15 AM,44.6,37.4,76,29.86,6.2,WSW,8.9,-,N/A,Rain,Light Rain,250,2013-01-31 01:15:00
2:45 AM,42.8,41.0,93,29.89,6.2,West,13.4,-,N/A,Rain,Light Rain,260,2013-01-31 01:45:00
3:15 AM,46.4,42.8,87,29.89,-9999.0,WNW,17.9,-,N/A,,Clear,290,2013-01-31 02:15:00
3:45 AM,46.4,41.0,81,29.86,-9999.0,WNW,13.4,-,N/A,,Clear,290,2013-01-31 02:45:00
4:15 AM,46.4,41.0,81,29.86,-9999.0,West,11.2,-,N/A,,Clear,280,2013-01-31 03:15:00
4:45 AM,46.4,39.2,76,29.86,-9999.0,West,11.2,22.4,N/A,,Clear,280,2013-01-31 03:45:00
5:15 AM,46.4,39.2,76,29.89,-9999.0,West,15.7,-,N/A,,Clear,280,2013-01-31 04:15:00
5:45 AM,-9999,-9999,N/A,-9999,6.2,WNW,15.7,26.8,N/A,,Clear,300,2013-01-31 04:45:00
6:15 AM,44.6,37.4,76,29.92,-9999.0,West,13.4,-,N/A,,Clear,280,2013-01-31 05:15:00
6:45 AM,44.6,39.2,81,29.95,-9999.0,WNW,13.4,-,N/A,,Clear,290,2013-01-31 05:45:00
7:15 AM,44.6,37.4,76,29.95,-9999.0,WNW,11.2,-,N/A,,Clear,300,2013-01-31 06:15:00
7:45 AM,44.6,35.6,71,29.98,-9999.0,WNW,13.4,-,N/A,,Clear,300,2013-01-31 06:45:00
8:15 AM,42.8,35.6,76,29.98,6.2,NW,11.2,-,N/A,,Partly Cloudy,310,2013-01-31 07:15:00
8:45 AM,-9999,-9999,N/A,-9999,6.2,WNW,15.7,26.8,N/A,,Clear,300,2013-01-31 07:45:00
9:15 AM,46.4,35.6,66,30.01,-9999.0,West,11.2,-,N/A,,Clear,280,2013-01-31 08:15:00
9:45 AM,48.2,35.6,62,30.01,-9999.0,WNW,11.2,-,N/A,,Clear,290,2013-01-31 08:45:00
10:15 AM,50.0,33.8,54,30.01,6.2,NW,24.6,-,N/A,,Partly Cloudy,310,2013-01-31 09:15:00
10:45 AM,50.0,33.8,54,30.01,6.2,WNW,26.8,40.3,N/A,,Partly Cloudy,300,2013-01-31 09:45:00
11:15 AM,51.8,32.0,47,30.04,6.2,NW,29.1,44.7,N/A,,Partly Cloudy,310,2013-01-31 10:15:00
12:15 PM,51.8,30.2,44,30.01,-9999.0,WNW,29.1,44.7,N/A,,Clear,300,2013-01-31 11:15:00
12:45 PM,-9999,-9999,N/A,-9999,6.2,NW,22.4,38.0,N/A,,Partly Cloudy,310,2013-01-31 11:45:00
1:00 PM,-9999,-9999,N/A,-9999,6.2,NW,22.4,38.0,N/A,,Partly Cloudy,310,2013-01-31 12:00:00
1:15 PM,51.8,28.4,41,30.01,-9999.0,NW,24.6,-,N/A,,Clear,310,2013-01-31 12:15:00
1:45 PM,51.8,26.6,38,30.01,-9999.0,WNW,26.8,38.0,N/A,,Clear,300,2013-01-31 12:45:00
2:15 PM,51.8,26.6,38,29.98,-9999.0,NW,26.8,-,N/A,,Clear,310,2013-01-31 13:15:00
2:45 PM,-9999,-9999,N/A,-9999,6.2,WNW,13.4,24.6,N/A,Rain,Light Rain Showers,290,2013-01-31 13:45:00
3:15 PM,50.0,26.6,40,29.98,-9999.0,WNW,26.8,-,N/A,,Clear,300,2013-01-31 14:15:00
3:45 PM,50.0,26.6,40,29.98,-9999.0,NW,22.4,-,N/A,,Clear,310,2013-01-31 14:45:00
4:15 PM,48.2,28.4,46,29.98,-9999.0,WNW,11.2,-,N/A,,Clear,300,2013-01-31 15:15:00
4:45 PM,44.6,28.4,53,29.98,-9999.0,WNW,8.9,-,N/A,,Clear,300,2013-01-31 15:45:00
5:15 PM,46.4,30.2,53,29.98,-9999.0,West,8.9,-,N/A,,Clear,260,2013-01-31 16:15:00
5:45 PM,-9999,-9999,N/A,-9999,-9999.0,North,-9999.0,-,N/A,,Unknown,0,2013-01-31 16:45:00
6:15 PM,44.6,30.2,57,29.98,-9999.0,WSW,6.7,-,N/A,,Clear,240,2013-01-31 17:15:00
6:45 PM,42.8,30.2,61,29.95,-9999.0,WSW,6.7,-,N/A,,Clear,240,2013-01-31 17:45:00
7:15 PM,42.8,32.0,66,29.95,-9999.0,SW,8.9,-,N/A,,Clear,230,2013-01-31 18:15:00
7:45 PM,42.8,30.2,61,29.92,-9999.0,SW,8.9,-,N/A,,Clear,220,2013-01-31 18:45:00
8:15 PM,41.0,30.2,65,29.92,-9999.0,WSW,4.5,-,N/A,,Clear,250,2013-01-31 19:15:00
8:45 PM,-9999,-9999,N/A,-9999,-9999.0,North,-9999.0,-,N/A,,Unknown,0,2013-01-31 19:45:00
9:15 PM,42.8,30.2,61,29.89,-9999.0,SW,6.7,-,N/A,,Clear,220,2013-01-31 20:15:00
9:45 PM,41.0,30.2,65,29.86,-9999.0,SW,6.7,-,N/A,,Clear,220,2013-01-31 20:45:00
10:15 PM,39.2,32.0,75,29.89,-9999.0,West,6.7,-,N/A,,Clear,260,2013-01-31 21:15:00
10:45 PM,44.6,33.8,66,29.89,-9999.0,WSW,8.9,-,N/A,,Clear,250,2013-01-31 21:45:00
11:15 PM,46.4,33.8,62,29.89,-9999.0,West,8.9,-,N/A,,Clear,260,2013-01-31 22:15:00
11:45 PM,-9999,-9999,N/A,-9999,0.1,North,-9999.0,-,N/A,Rain,Light Rain,0,2013-01-31 22:45:00